Weather History for Central Park, NY

Change the Weather History Date:

Saturday, January 12, 2013

  Actual Average Record
Temperature  
Mean Temperature 45 °F 32 °F  
Max Temperature 47 °F 38 °F 64 °F (1890)
Min Temperature 42 °F 27 °F 2 °F (1981)
Degree Days  
Heating Degree Days 20 33  
Month to date heating degree days 322 387  
Since 1 July heating degree days 1912 2072  
Cooling Degree Days 0 0  
Month to date cooling degree days 0 0  
Year to date cooling degree days 0 0  
Moisture  
Dew Point 42 °F    
Average Humidity 93    
Maximum Humidity 100    
Minimum Humidity 86    
Precipitation  
Precipitation 0.02 in 0.13 in 2.35 in (1915)
Month to date precipitation 0.57 1.46  
Year to date precipitation 0.57 1.46  
Snow  
Snow 0.00 in 0.20 in 6.10 in (2011)
Month to date snowfall T 2.6  
Since 1 July snowfall 5.1 7.7  
Snow Depth 0.00 in    
Sea Level Pressure  
Sea Level Pressure 30.13 in    
Wind  
Wind Speed 4 mph (NE)    
Max Wind Speed 10 mph    
Max Gust Speed 14 mph    
Visibility 4 miles    
Events Rain    
T = Trace of Precipitation, MM = Missing Value Source: NWS Daily Summary

Daily Weather History Graph

Daily Weather History Graph

Search for Another Location

Airport:

Trip Planner

Search our weather history database for the weather conditions in past years. The results will help you decide how hot, cold, wet, or windy it might be!

Date:

Astronomy

Jan. 12, 2013 Rise Set
Actual Time 7:18 AM EST 4:49 PM EST
Civil Twilight 6:48 AM EST 5:20 PM EST
Nautical Twilight 6:14 AM EST 5:54 PM EST
Astronomical Twilight 5:41 AM EST 6:27 PM EST
Moon 7:35 AM EST (1/12) 6:16 PM EST (1/12)
Length of Visible Light 10h 31m
Length of Day
9h 31m
New Moon, 1% of the Moon is Illuminated
Jan 12
New Moon
Jan 18
First Quarter
Jan 26
Full
Feb 3
Last Quarter
Feb 10
New

Hourly Weather History & Observations

Time (EST) Temp. Windchill Dew Point Humidity Pressure Visibility Wind Dir Wind Speed Gust Speed Precip Events Conditions
12:06 AM 45.0 °F - 44.1 °F 97% 30.11 in 4.0 mi Calm Calm - 0.01 in Rain Light Rain
12:31 AM 45.0 °F 42.6 °F 44.1 °F 97% 30.11 in 2.5 mi NE 4.6 mph - 0.02 in Rain Light Rain
12:59 AM 45.0 °F 43.5 °F 44.1 °F 97% 30.10 in 2.0 mi Variable 3.5 mph - N/A   Overcast
1:51 AM 44.1 °F 40.8 °F 43.0 °F 96% 30.09 in 2.5 mi North 5.8 mph - N/A   Overcast
2:06 AM 44.6 °F 43.1 °F 42.8 °F 93% 30.11 in 1.5 mi Variable 3.5 mph - N/A   Overcast
2:26 AM 42.1 °F 39.2 °F 41.0 °F 96% 30.11 in 2.0 mi NNW 4.6 mph - N/A   Overcast
2:51 AM 43.0 °F 41.3 °F 42.1 °F 97% 30.09 in 1.8 mi Variable 3.5 mph - N/A   Overcast
2:59 AM 43.0 °F - 41.0 °F 93% 30.12 in 2.5 mi Calm Calm - N/A   Overcast
3:06 AM 42.1 °F 39.2 °F 41.0 °F 96% 30.12 in 3.0 mi Variable 4.6 mph - N/A   Overcast
3:15 AM 43.0 °F 39.5 °F 41.0 °F 93% 30.12 in 2.5 mi North 5.8 mph - N/A   Overcast
3:51 AM 43.0 °F 40.3 °F 42.1 °F 97% 30.08 in 2.5 mi NE 4.6 mph - N/A   Overcast
4:06 AM 43.0 °F - 42.1 °F 97% 30.10 in 3.0 mi Calm Calm - N/A   Overcast
4:46 AM 42.8 °F 39.3 °F 42.8 °F 100% 30.10 in 7.0 mi NE 5.8 mph - N/A   Overcast
4:51 AM 43.0 °F 40.3 °F 42.1 °F 97% 30.07 in 6.0 mi NE 4.6 mph - N/A   Overcast
5:26 AM 43.0 °F 40.3 °F 42.1 °F 97% 30.12 in 5.0 mi Variable 4.6 mph - N/A   Overcast
5:51 AM 43.0 °F - 42.1 °F 97% 30.11 in 6.0 mi Calm Calm - N/A   Overcast
5:59 AM 43.0 °F - 42.1 °F 97% 30.14 in 5.0 mi Calm Calm - N/A   Overcast
6:16 AM 43.0 °F 41.3 °F 42.1 °F 97% 30.13 in 4.0 mi NE 3.5 mph - N/A   Overcast
6:49 AM 42.8 °F 39.3 °F 42.8 °F 100% 30.14 in 4.0 mi NE 5.8 mph - N/A   Overcast
6:51 AM 43.0 °F 38.8 °F 42.1 °F 97% 30.12 in 4.0 mi NNE 6.9 mph - N/A   Overcast
7:25 AM 44.1 °F 39.5 °F 42.1 °F 93% 30.14 in 5.0 mi NE 8.1 mph - N/A   Overcast
7:46 AM 44.6 °F 42.2 °F 42.8 °F 93% 30.16 in 4.0 mi NNE 4.6 mph - N/A   Overcast
7:51 AM 44.1 °F 41.5 °F 43.0 °F 96% 30.14 in 4.0 mi North 4.6 mph - N/A   Overcast
8:51 AM 44.1 °F 40.8 °F 43.0 °F 96% 30.14 in 4.0 mi NE 5.8 mph - N/A   Overcast
9:51 AM 45.0 °F 41.8 °F 43.0 °F 93% 30.15 in 4.0 mi NE 5.8 mph - N/A   Overcast
10:51 AM 45.0 °F - 43.0 °F 93% 30.15 in 8.0 mi Calm Calm - N/A   Overcast
11:51 AM 46.0 °F 43.9 °F 43.0 °F 89% 30.14 in 7.0 mi ENE 4.6 mph - N/A   Overcast
12:51 PM 46.0 °F 44.8 °F 43.0 °F 89% 30.13 in 6.0 mi NE 3.5 mph - N/A   Overcast
1:51 PM 46.9 °F - 43.0 °F 86% 30.15 in 5.0 mi ENE 3.5 mph - N/A   Overcast
2:51 PM 46.9 °F - 43.0 °F 86% 30.14 in 4.0 mi ENE 4.6 mph - N/A   Overcast
3:51 PM 46.0 °F 44.8 °F 43.0 °F 89% 30.15 in 4.0 mi ENE 3.5 mph - N/A   Overcast
4:43 PM 45.0 °F 43.5 °F 43.0 °F 93% 30.17 in 2.5 mi ENE 3.5 mph - N/A   Overcast
4:51 PM 45.0 °F 42.6 °F 43.0 °F 93% 30.16 in 3.0 mi ENE 4.6 mph - N/A   Overcast
5:38 PM 45.0 °F 41.8 °F 43.0 °F 93% 30.20 in 4.0 mi NE 5.8 mph - N/A   Overcast
5:51 PM 44.1 °F 40.8 °F 43.0 °F 96% 30.17 in 3.0 mi NE 5.8 mph - N/A   Overcast
6:51 PM 44.1 °F - 43.0 °F 96% 30.15 in 3.0 mi Calm Calm - N/A   Overcast
7:51 PM 44.1 °F 42.5 °F 42.1 °F 93% 30.17 in 3.0 mi NE 3.5 mph - N/A   Overcast
8:39 PM 44.1 °F - 42.1 °F 93% 30.18 in 3.0 mi Calm Calm - N/A   Overcast
8:51 PM 44.1 °F 42.5 °F 42.1 °F 93% 30.15 in 3.0 mi ENE 3.5 mph - N/A   Overcast
9:51 PM 44.1 °F 42.5 °F 42.1 °F 93% 30.13 in 3.0 mi ENE 3.5 mph - N/A   Overcast
10:34 PM 44.1 °F 42.5 °F 42.1 °F 93% 30.16 in 2.5 mi NNE 3.5 mph - N/A   Overcast
10:51 PM 44.1 °F 41.5 °F 42.1 °F 93% 30.13 in 2.5 mi ENE 4.6 mph - N/A   Overcast
11:09 PM 43.0 °F - 42.1 °F 97% 30.17 in 2.0 mi Calm Calm - N/A   Overcast
11:22 PM 43.0 °F - 42.1 °F 97% 30.17 in 1.2 mi Calm Calm - N/A   Overcast
11:51 PM 43.0 °F 40.3 °F 42.1 °F 97% 30.15 in 1.8 mi NNE 4.6 mph - N/A   Overcast